Guatemala, Guatemala

9:57 AM CST on September 18, 2018 (GMT -0600)
La Aurora International

Weather History for MGGT - January, 2018

Change the Weather History Date:

Saturday, January 13, 2018

  Actual Average Record
Temperature  
Mean Temperature 58 °F -  
Max Temperature 66 °F 73 °F 80 °F (2005)
Min Temperature 51 °F 54 °F 48 °F (1999)
Degree Days  
Heating Degree Days 6    
Growing Degree Days 8 (Base 50)    
Moisture  
Dew Point 46 °F    
Average Humidity 66    
Maximum Humidity 77    
Minimum Humidity 45    
Precipitation  
Precipitation 0.00 in - - ()
Sea Level Pressure  
Sea Level Pressure 30.38 in    
Wind  
Wind Speed 32 mph ()    
Max Wind Speed 94 mph    
Max Gust Speed -    
Visibility 6.3 miles    
Events      
Averages and records for this station are not official NWS values.
T = Trace of Precipitation, MM = Missing Value Source: Averaged Metar Reports

Daily Weather History Graph

Daily Weather History Graph

Search for Another Location

Airport or City:

Astronomy

Jan. 13, 2018 Rise Set
Actual Time 6:30 AM CST 5:51 PM CST
Civil Twilight 6:07 AM CST 6:14 PM CST
Nautical Twilight 5:41 AM CST 6:40 PM CST
Astronomical Twilight 5:14 AM CST 7:06 PM CST
Moon 3:40 AM CST (1/13) 3:22 PM CST (1/13)
Length of Visible Light 12h 06m
Length of Day
11h 20m
Waning Crescent, 10% of the Moon is Illuminated
Jan 13
Waning Crescent
Jan 16
New
Jan 24
First Quarter
Jan 31
Full
Feb 7
Last Quarter

Hourly Weather History & Observations

Time (CST) Temp. Dew Point Humidity Pressure Visibility Wind Dir Wind Speed Gust Speed Precip Events Conditions
12:00 AM - - %  in 6 mi WSW 94.4 mph - -  
12:00 AM 57.2 °F 50.0 °F 77% 30.36 in 6.2 mi North 20.7 mph - N/A   Scattered Clouds
1:00 AM 55.4 °F 46.4 °F 72% 30.36 in 6.2 mi North 18.4 mph - N/A   Partly Cloudy
2:00 AM 53.6 °F 46.4 °F 77% 30.33 in 6.2 mi North 16.1 mph - N/A   Partly Cloudy
3:00 AM 53.6 °F 46.4 °F 77% 30.33 in - North 16.1 mph - N/A   Clear
4:00 AM 53.6 °F 46.4 °F 77% 30.33 in - North 18.4 mph - N/A   Clear
5:00 AM 51.8 °F 42.8 °F 71% 30.33 in 6.2 mi North 18.4 mph - N/A   Partly Cloudy
6:00 AM - - %  in 1 mi WNW 94.4 mph - -  
6:00 AM 51.8 °F 42.8 °F 71% 30.36 in - North 18.4 mph - N/A   Clear
7:00 AM 51.8 °F 42.8 °F 71% 30.36 in - North 20.7 mph - N/A   Clear
8:00 AM 53.6 °F 42.8 °F 67% 30.39 in - North 20.7 mph - N/A   Clear
9:00 AM 57.2 °F 37.4 °F 48% 30.42 in 6.2 mi NNE 20.7 mph - N/A   Partly Cloudy
10:00 AM 60.8 °F 46.4 °F 59% 30.42 in 6.2 mi North 20.7 mph - N/A   Partly Cloudy
11:00 AM 64.4 °F 42.8 °F 45% 30.39 in 6.2 mi NNE 20.7 mph - N/A   Partly Cloudy
12:00 PM - - %  in 19 mi WSW 94.4 mph - -  
12:00 PM 64.4 °F 46.4 °F 52% 30.39 in 6.2 mi NNW 23.0 mph - N/A   Partly Cloudy
1:00 PM 66.2 °F 48.2 °F 52% 30.36 in 6.2 mi NNW 18.4 mph - N/A   Partly Cloudy
2:00 PM 66.2 °F 48.2 °F 52% 30.30 in 6.2 mi North 16.1 mph - N/A   Partly Cloudy
3:00 PM 66.2 °F 48.2 °F 52% 30.33 in 6.2 mi North 18.4 mph - N/A   Scattered Clouds
4:00 PM 64.4 °F 48.2 °F 56% 30.33 in 6.2 mi North 23.0 mph - N/A   Scattered Clouds
5:00 PM 60.8 °F 48.2 °F 63% 30.36 in 6.2 mi North 23.0 mph - N/A   Scattered Clouds
6:00 PM - - %  in 0 mi WSW 94.4 mph - -   Partly Cloudy
6:00 PM 57.2 °F 48.2 °F 72% 30.36 in 6.2 mi North 23.0 mph - N/A   Scattered Clouds
7:00 PM 55.4 °F 46.4 °F 72% 30.42 in 6.2 mi North 23.0 mph - N/A   Scattered Clouds
8:00 PM 53.6 °F 46.4 °F 77% 30.45 in 6.2 mi North 23.0 mph - N/A   Partly Cloudy
9:00 PM 53.6 °F 44.6 °F 72% 30.48 in 6.2 mi North 25.3 mph - N/A   Mostly Cloudy
10:00 PM 53.6 °F 44.6 °F 72% 30.48 in 6.2 mi NNE 23.0 mph - N/A   Scattered Clouds
11:00 PM 51.8 °F 42.8 °F 71% 30.48 in 6.2 mi North 20.7 mph - N/A   Scattered Clouds